Location: Jeantes
(49.8041°N, 4.0555°E)
Time: 04:35:18
(UTC+00:00)

Daily predictions for brighter satellites

Satellite Brightness Start Highest point End
(mag) Time Altitude Azimuth Time Altitude Azimuth Time Altitude Azimuth
Resurs 1-4 Rocket 4.1 00:02:22 10° NE 00:05:51 17° E 00:09:19 10° SE
GP-B 3.7 00:02:49 10° N 00:07:05 47° W 00:09:14 26° SW
Cosmos 841 Rocket 4.2 00:06:13 24° SSE 00:08:41 40° ESE 00:13:28 10° NE
Cosmos 2263 4.2 00:03:55 10° NNW 00:09:36 76° WSW 00:13:07 24° SSE
NOSS 3-1 (C) 3.7 00:04:58 12° SW 00:10:09 66° NW 00:16:42 10° NE
Cosmos 1932 4.4 00:07:32 10° NW 00:13:43 66° WSW 00:17:55 21° SSE
Cosmos 1606 4.0 00:11:35 10° N 00:15:06 33° ENE 00:17:30 17° SE
Cosmos 1356 3.5 00:15:18 39° SSW 00:16:23 68° WNW 00:19:47 10° N
ALOS 2 4.4 00:17:01 15° WSW 00:18:46 19° W 00:21:55 10° NW
NOSS 8 (H) 4.0 00:17:54 42° SW 00:18:47 87° NW 00:21:46 10° NE
USA 290 4.2 00:18:17 17° ESE 00:18:59 18° ESE 00:21:17 10° ENE
Cosmos 1937 Rocket 3.5 00:14:07 10° NNW 00:19:28 79° WSW 00:22:43 24° SSE
USA 215 3.3 00:14:08 10° ENE 00:20:42 83° NNW 00:27:15 10° WSW
NOSS 2-3 (E) 4.2 00:17:47 15° WSW 00:21:15 57° NW 00:26:18 10° NE
NOSS 3-1 (A) 3.3 00:18:40 19° SW 00:22:47 83° NW 00:29:20 10° NE
Cosmos 1898 Rocket 3.7 00:18:45 10° NNW 00:23:52 54° WSW 00:26:28 27° S
Cosmos 1242 Rocket 3.1 00:21:56 10° N 00:25:29 51° ENE 00:27:23 24° SE
Cosmos 1953 Rocket 3.7 00:25:22 29° SSW 00:27:30 69° WNW 00:31:56 10° N
DELTA 2 R/B (1) 4.4 00:28:13 27° S 00:29:05 28° S 00:33:44 10° ESE
Cosmos 1943 Rocket 3.6 00:26:01 10° NW 00:30:09 22° WSW 00:32:13 18° SW
Cosmos 921 Rocket 3.5 00:31:04 27° SSE 00:32:57 46° ESE 00:36:58 10° NNE
Cosmos-2242 4.5 00:29:39 10° NNW 00:33:18 26° W 00:35:07 19° SW
Cosmos 2058 2.9 00:32:29 31° S 00:34:22 78° E 00:38:29 10° NNE
CZ-2D R/B 3.5 00:30:27 10° NE 00:34:54 28° E 00:38:34 13° SSE
Cosmos 1892 3.7 00:33:34 24° SW 00:35:21 37° WNW 00:39:00 10° N
Cosmos 1408 3.4 00:35:06 26° SW 00:36:38 41° WNW 00:40:10 10° N
Meteor 2-8 Rocket 4.5 00:33:47 10° N 00:39:59 84° E 00:44:30 20° SSE
CREW DRAGON DEMO-1 DEB 2.7 00:39:10 25° W 00:40:19 58° N 00:42:43 10° ENE
EO 1 Del DPAF 3.2 00:37:06 10° N 00:40:50 71° WNW 00:42:27 31° SSW
USA 307 3.3 00:41:14 30° SSW 00:42:50 45° SE 00:46:55 10° ENE
CENTAUR R/B 4.4 00:36:09 10° NW 00:43:22 42° NNE 00:51:29 10° E
Cosmos 1814 Rocket 4.4 00:41:01 24° S 00:43:57 53° ESE 00:48:59 10° NNE
Cosmos 372 Rocket 3.9 00:39:42 10° NNW 00:44:59 82° WSW 00:48:45 19° SSE
Cosmos 1842 Rocket 3.5 00:40:54 10° NNW 00:45:16 77° W 00:47:37 27° S
FALCON 9 DEB 2.9 00:42:23 10° WNW 00:45:32 82° NNE 00:48:40 10° ESE
Cosmos 1092 Rocket 4.4 00:41:43 18° SSE 00:46:07 54° E 00:52:07 10° NNE
Cosmos 1076 Rocket 3.9 00:47:59 24° SSE 00:50:21 55° E 00:54:31 10° NNE
Cosmos 1437 Rocket 3.2 00:48:05 10° NNW 00:51:47 43° W 00:53:14 29° SSW
Cosmos 1943 3.3 00:48:43 21° SW 00:52:33 74° WNW 00:58:15 10° NNE
Cosmos 1825 2.7 00:52:03 27° SW 00:53:45 46° WNW 00:57:25 10° N
SL-16 R/B 2.9 00:49:01 10° SSE 00:55:06 62° ENE 01:01:12 10° N
USA 267 3.7 00:51:01 16° SSE 00:55:54 40° SW 01:02:01 10° WNW
FALCON 9 DEB 2.7 00:54:25 10° WNW 00:57:30 69° SSW 01:00:34 10° ESE
FALCON 9 DEB 4.0 00:55:40 10° W 00:58:17 29° SW 00:58:17 29° SW
USA 308 3.0 00:56:47 26° SW 00:58:56 56° SSE 01:03:07 10° ENE
Cosmos 1763 Rocket 4.3 00:55:46 16° SW 00:59:29 43° WNW 01:04:26 10° NNE
Cosmos 1633 2.8 00:59:42 27° SSE 01:01:25 60° E 01:04:55 10° NNE
Exosat Rocket 4.1 00:57:05 17° SW 01:01:42 57° WNW 01:06:43 10° NNE
Cosmos 1125 Rocket 4.3 00:56:45 10° NNW 01:01:54 52° ENE 01:07:03 10° SE
Cosmos 2150 Rocket 4.4 00:57:35 10° NNW 01:02:46 63° ENE 01:07:59 10° SE
Cosmos 1570 Rocket 4.0 00:59:36 23° SSW 01:02:52 75° ESE 01:08:06 10° NNE
Cosmos 2221 2.9 00:59:02 10° NNW 01:03:11 48° W 01:05:17 25° SSW
Cosmos 1656 Rocket 4.5 00:59:11 10° NW 01:04:18 35° WSW 01:07:10 22° SSW
Helios 1B rocket 3.8 01:00:48 10° NNE 01:04:27 31° E 01:07:17 15° SSE
Cosmos 1603 4.1 01:00:22 18° SW 01:04:35 60° WNW 01:10:11 10° NNE
SL-4 R/B 1.8 01:00:51 10° WNW 01:04:40 76° NNE 01:08:13 10° E
UNK 4.3 01:01:11 11° SSE 01:05:29 58° ENE 01:10:04 10° N
NOSS 2-2 (D) 3.3 01:04:33 30° S 01:05:58 53° SE 01:09:38 10° NE
CZ-4C R/B 4.0 01:03:59 10° SE 01:06:51 15° ESE 01:09:58 10° ENE
FALCON 9 DEB 2.7 01:05:26 10° WNW 01:08:32 70° SSW 01:11:39 10° ESE
FALCON 9 DEB 2.8 01:05:47 10° WNW 01:08:52 60° SSW 01:11:55 10° SE
Cosmos 2098 Rocket 3.4 01:10:38 22° SSW 01:13:39 60° W 01:17:40 10° N
USA 305 2.8 01:12:05 20° SW 01:14:58 74° SSE 01:19:14 10° ENE
Lacrosse 5 rocket 1.7 01:12:34 10° NW 01:16:07 55° NNE 01:19:42 10° ESE
Cosmos 405 Rocket 4.4 01:18:38 14° WSW 01:20:44 21° WNW 01:23:38 10° NNW
Cosmos 2208 Rocket 4.1 01:18:26 21° SSW 01:22:12 87° ESE 01:27:43 10° NNE
Meteor 2-15 Rocket 4.4 01:18:56 10° NNW 01:25:07 76° W 01:30:18 15° S
SL-16 R/B 4.5 01:22:59 10° W 01:26:53 19° NW 01:30:49 10° N
Lacrosse 4 Rocket 1.9 01:23:38 10° NW 01:27:24 37° WSW 01:29:31 21° S
Helios 1A 3.8 01:27:13 21° SSW 01:29:20 34° W 01:33:12 10° NNW
Cosmos 1437 3.3 01:27:26 10° NNW 01:30:00 32° W 01:30:46 27° SW
Aureole 3 Rocket 3.6 01:26:23 10° NNW 01:30:26 53° W 01:34:29 17° SSW
Cosmos 540 Rocket 4.3 01:26:38 15° SW 01:30:33 42° WNW 01:35:26 10° NNE
ERBS 3.3 01:30:15 23° S 01:31:29 30° SE 01:34:23 10° ENE
Cosmos 2369 Rocket 4.0 01:29:07 10° WNW 01:32:05 14° W 01:34:13 12° WSW
CZ-4 R/B 4.4 01:29:56 10° N 01:34:25 47° WNW 01:37:46 17° SW
USA 281 4.4 01:28:24 10° ESE 01:34:33 44° NE 01:40:43 10° NNW
ATLAS 5 CENTAUR R/B 1.5 01:32:40 19° SW 01:35:31 80° NW 01:40:05 10° NE
CZ-3B R/B 2.7 01:28:48 10° WNW 01:36:35 62° NNE 01:39:22 10° E
USA 306 2.9 01:33:54 13° WSW 01:37:38 87° NNW 01:41:54 10° ENE
Cosmos 1271 Rocket 3.8 01:34:20 10° N 01:37:55 41° ENE 01:41:30 10° SE
Cosmos 1553 Rocket 4.1 01:33:21 10° N 01:39:41 80° E 01:45:52 10° SSE
BREEZE-M DEB (TANK) 4.5 01:35:18 10° WNW 01:41:09 65° SSW 02:04:35 10° SE
NOSS 2-2 (E) 3.6 01:41:36 16° WSW 01:44:16 55° NW 01:48:13 10° NE
MINOTAUR 4 R/B 4.3 01:41:08 10° SSE 01:44:39 70° ENE 01:48:11 10° N
ARGOS Delta rocket 4.3 01:39:12 10° N 01:44:40 68° WNW 01:48:59 16° SSW
Resurs 1-4 Rocket 2.1 01:40:57 10° NNE 01:46:18 79° WNW 01:50:39 16° SSW
S3M 4.4 01:41:22 10° N 01:47:30 64° ENE 01:53:40 10° SSE
Cosmos 2026 Rocket 4.1 01:42:46 16° SSW 01:47:55 71° WNW 01:54:19 10° N
Cosmos 1606 4.2 01:47:38 10° NW 01:50:37 22° W 01:52:28 15° SW
ADEOS II 2.5 01:46:38 10° NNE 01:51:51 59° E 01:56:54 11° S
USA 290 3.5 01:51:03 15° WSW 01:53:12 31° WNW 01:56:07 10° N
Cosmos 1151 Rocket 3.1 01:49:54 10° N 01:54:11 78° ENE 01:58:27 10° SSE
Cosmos 1782 2.8 01:53:14 10° N 01:57:16 85° W 02:01:17 10° S
Cosmos 1833 Rocket 4.4 01:53:46 10° SSE 01:58:18 25° ESE 02:02:51 10° NE
NOSS 2-2 (C) 3.7 01:55:47 13° WSW 01:58:42 51° NW 02:02:33 10° NE
ADEOS Rocket 3.3 01:52:55 10° SSE 02:00:04 83° WSW 02:06:30 10° NNW
IDEFIX/ARIANE 42P 3.7 01:55:48 10° NNE 02:00:44 40° E 02:05:37 10° SSE
Meteor 1-28 Rocket 3.5 01:58:58 10° SSE 02:02:45 70° ENE 02:06:33 10° N
USA 215 4.2 01:57:08 10° ENE 02:03:23 50° N 02:09:39 10° W
NOSS 3-2 (A) 4.1 01:57:46 10° NW 02:05:11 89° SW 02:13:41 10° SE
SeaSat 1 4.5 02:02:14 10° ENE 02:05:53 20° ESE 02:09:31 10° SSE
IRS-1D 3.9 02:01:11 10° NNE 02:06:16 60° ESE 02:11:13 10° S
NOSS 3-2 (C) 4.4 02:02:36 10° NW 02:09:54 71° NE 02:18:18 10° SE
CZ-4C R/B 3.9 02:08:11 10° SSE 02:11:32 49° ENE 02:14:57 10° N
Cosmos 2151 3.8 02:10:38 14° SW 02:13:54 36° WNW 02:17:49 10° N
CREW DRAGON DEMO-1 DEB 2.7 02:11:40 10° WNW 02:14:05 63° N 02:16:29 10° E
Cosmos 1515 Rocket 4.2 02:10:16 10° N 02:14:40 58° ENE 02:19:03 10° SSE
CZ-2D R/B 2.6 02:10:10 10° N 02:15:11 49° WNW 02:19:53 12° SW
NPP 3.9 02:10:05 10° N 02:15:23 59° WNW 02:20:23 12° SSW
Alouette 2 Rocket 3.3 02:11:55 10° NNW 02:15:29 65° WSW 02:19:46 10° S
Landsat 4 3.7 02:12:58 10° NNE 02:16:46 85° ESE 02:20:25 11° SSW
Cosmos 1408 Rocket 4.3 02:14:03 10° S 02:18:23 53° E 02:22:46 10° NNE
Cosmos 1766 Rocket 3.6 02:14:18 11° SSW 02:18:37 82° W 02:23:08 10° N
FALCON 9 DEB 4.1 02:18:28 10° W 02:20:57 21° SW 02:23:25 10° SSE
X-37B 2.8 02:22:08 11° S 02:22:08 11° S 02:22:21 10° S
AQUA 4.1 02:16:58 10° N 02:21:39 57° WNW 02:26:09 11° SSW
USA 307 3.4 02:18:32 10° W 02:22:46 61° NNW 02:27:00 10° ENE
Cosmos 2266 Rocket 4.1 02:18:25 10° S 02:24:28 75° E 02:30:31 10° NNE
DELTA 2 DEB (DPAF) 4.2 02:22:48 10° S 02:27:12 63° WSW 02:31:38 10° NNW
Cosmos 2082 Rocket 4.2 02:23:33 10° SSE 02:27:46 22° ESE 02:31:59 10° NE
Cosmos 2292 Rocket 3.8 02:30:15 12° SW 02:32:39 29° WNW 02:35:29 10° N
CENTAUR R/B 3.3 02:26:55 10° NW 02:34:57 84° SW 02:43:52 10° SE
Genesis I 3.3 02:33:26 10° NW 02:37:30 88° SW 02:41:34 10° SE
USA 308 3.6 02:34:47 10° W 02:38:58 56° NNW 02:43:11 10° ENE
SL-16 R/B 3.6 02:33:59 10° SSW 02:39:08 27° W 02:44:18 10° NW
Okean 3 Rocket 3.9 02:35:19 10° SSW 02:39:36 53° WNW 02:43:54 10° N
Helios 1B rocket 3.6 02:36:05 10° N 02:39:39 29° WNW 02:43:12 10° SW
Meteor 1-29 3.6 02:37:55 10° N 02:41:10 41° WNW 02:44:22 10° SW
BREEZE-M DEB (TANK) 3.2 02:38:40 10° W 02:41:16 70° S 02:49:39 10° ESE
Cosmos 2084 Rocket 3.7 02:39:20 10° SSW 02:43:10 53° SE 02:47:05 10° NE
Spot 1 4.4 02:38:18 10° SSE 02:43:19 82° WSW 02:48:06 10° NNW
ASTEX 1 3.4 02:38:58 10° S 02:43:52 69° W 02:48:48 10° N
SL-4 R/B 2.1 02:40:39 10° W 02:44:02 37° SSW 02:47:15 10° SE
USA 238 DEB 3.9 02:37:58 10° NW 02:45:11 74° SW 02:52:43 10° SSE
Cosmos 1656 3.9 02:39:37 10° NW 02:45:11 55° WSW 02:50:42 10° S
USA 238 3.9 02:38:05 10° NW 02:45:18 74° SW 02:52:51 10° SSE
SL-08 R/B 3.7 02:43:20 10° SSE 02:48:00 70° ENE 02:52:48 10° N
Cosmos 44 4.1 02:45:11 10° SSW 02:50:19 53° ESE 02:55:38 10° NE
ARIANE 5 R/B 3.0 02:48:59 10° NNE 02:53:56 59° ESE 02:58:53 10° S
CZ-4C R/B 2.2 02:49:10 10° SW 02:54:09 86° SE 03:00:16 10° NE
Lacrosse 5 rocket 1.9 02:51:52 10° WNW 02:55:01 28° SW 02:58:13 10° SSE
USA 305 3.8 02:50:57 10° W 02:55:06 50° N 02:59:16 10° ENE
